START_TIME,STEP,MOV.,P11,t_acc.,P23,t_acc.,P27,t_acc.,A4,t_acc.
1980-11-14 09:04:08.070 ,0,0,,0,,0,,0,,0
1980-11-14 09:04:12.870 ,0,0,,0,,0,,0,,0
1980-11-14 09:04:17.670 ,0,0,,0,,0,,0,,0
1980-11-14 09:04:22.470 ,0,0,,0,,0,,0,,0
1980-11-14 09:04:27.270 ,0,0,,0,,0,,0,,0
1980-11-14 09:04:11.670 ,0,0,,0,,0,,0,,0
1980-11-14 09:04:16.470 ,0,0,,0,,0,,0,,0
1980-11-14 09:04:21.270 ,0,0,,0,,0,,0,,0
1980-11-14 09:04:26.070 ,0,0,,0,,0,,0,,0
1980-11-14 09:04:30.870 ,0,0,,0,,0,,0,,0
1980-11-14 09:09:06.270 ,0,0,,0,,0,,0,,0
1980-11-14 09:09:11.070 ,0,0,,0,,0,,0,,0
1980-11-14 09:09:15.870 ,0,0,0.,4.8,0.,4.8,0.,4.8,0.,4.8
1980-11-14 09:09:20.670 ,0,0,0.,4.8,0.,4.8,0.,4.8,0.,4.8
1980-11-14 09:09:25.470 ,0,0,1.,4.8,0.,4.8,0.,4.8,0.,4.8
1980-11-14 09:09:23.670 ,2,0,0.,4.8,0.,4.8,0.,4.8,0.,4.8
1980-11-14 09:09:28.470 ,2,0,0.,4.8,0.,4.8,0.,4.8,0.,4.8
1980-11-14 09:09:33.270 ,2,0,0.,4.8,0.,4.8,0.,4.8,0.,4.8
1980-11-14 09:09:38.070 ,2,0,0.,4.8,0.,4.8,0.,4.8,0.,4.8
1980-11-14 09:09:42.870 ,2,0,2.,4.8,0.,4.8,0.,4.8,0.,4.8
1980-11-14 09:09:47.670 ,2,0,2.,4.8,0.,4.8,0.,4.8,0.,4.8
1980-11-14 09:09:52.470 ,2,0,1.,4.8,0.,4.8,0.,4.8,0.,4.8
1980-11-14 09:09:57.270 ,2,0,0.,4.8,0.,4.8,0.,4.8,0.,4.8
1980-11-14 09:10:02.070 ,2,0,0.,4.8,0.,4.8,0.,4.8,0.,4.8
1980-11-14 09:10:06.870 ,2,0,3.,4.8,0.,4.8,0.,4.8,0.,4.8
1980-11-14 09:10:11.670 ,3,0,0.,4.8,0.,4.8,0.,4.8,0.,4.8
1980-11-14 09:10:16.470 ,3,0,0.,4.8,0.,4.8,0.,4.8,0.,4.8
1980-11-14 09:10:21.270 ,3,0,0.,4.8,0.,4.8,0.,4.8,0.,4.8
1980-11-14 09:10:26.070 ,3,0,0.,4.8,0.,4.8,0.,4.8,0.,4.8
1980-11-14 09:10:30.870 ,3,0,0.,4.8,0.,4.8,0.,4.8,0.,4.8
1980-11-14 09:10:35.670 ,3,0,0.,4.8,0.,4.8,0.,4.8,0.,4.8
1980-11-14 09:10:40.470 ,3,0,0.,4.8,0.,4.8,0.,4.8,0.,4.8
1980-11-14 09:10:45.270 ,3,0,0.,4.8,0.,4.8,0.,4.8,0.,4.8
1980-11-14 09:10:50.070 ,3,0,0.,4.8,0.,4.8,0.,4.8,0.,4.8
1980-11-14 09:10:54.870 ,3,0,1.,4.8,0.,4.8,0.,4.8,0.,4.8
1980-11-14 09:10:59.670 ,4,0,1.,4.8,0.,4.8,0.,4.8,0.,4.8
1980-11-14 09:11:04.470 ,4,0,0.,4.8,0.,4.8,0.,4.8,0.,4.8
1980-11-14 09:11:09.270 ,4,0,0.,4.8,0.,4.8,0.,4.8,0.,4.8
1980-11-14 09:11:14.070 ,4,0,0.,4.8,0.,4.8,0.,4.8,0.,4.8
1980-11-14 09:11:18.870 ,4,0,0.,4.8,0.,4.8,0.,4.8,0.,4.8
1980-11-14 09:11:23.670 ,4,0,3.,4.8,0.,4.8,1.,4.8,0.,4.8
1980-11-14 09:11:28.470 ,4,0,0.,4.8,0.,4.8,0.,4.8,0.,4.8
1980-11-14 09:11:33.270 ,4,0,3.,4.8,0.,4.8,0.,4.8,0.,4.8
1980-11-14 09:11:38.070 ,4,0,0.,4.8,0.,4.8,0.,4.8,0.,4.8
1980-11-14 09:11:42.870 ,4,0,0.,4.8,0.,4.8,0.,4.8,0.,4.8
1980-11-14 09:11:47.670 ,5,0,0.,4.8,0.,4.8,1.,4.8,0.,4.8
1980-11-14 09:11:52.470 ,5,0,0.,4.8,0.,4.8,0.,4.8,0.,4.8
1980-11-14 09:11:57.270 ,5,0,0.,4.8,0.,4.8,0.,4.8,0.,4.8
1980-11-14 09:12:02.070 ,5,0,1.,4.8,0.,4.8,0.,4.8,0.,4.8
1980-11-14 09:12:06.870 ,5,0,0.,4.8,0.,4.8,0.,4.8,0.,4.8
1980-11-14 09:12:11.670 ,5,0,0.,4.8,0.,4.8,0.,4.8,0.,4.8
1980-11-14 09:12:16.470 ,5,0,0.,4.8,0.,4.8,0.,4.8,0.,4.8
1980-11-14 09:12:21.270 ,5,0,1.,4.8,0.,4.8,0.,4.8,0.,4.8
1980-11-14 09:12:26.070 ,5,0,0.,4.8,0.,4.8,0.,4.8,0.,4.8
1980-11-14 09:12:30.870 ,5,0,0.,4.8,0.,4.8,0.,4.8,0.,4.8
1980-11-14 09:12:35.670 ,6,0,0.,4.8,0.,4.8,0.,4.8,0.,4.8
1980-11-14 09:12:40.470 ,6,0,0.,4.8,0.,4.8,0.,4.8,0.,4.8
1980-11-14 09:12:45.270 ,6,0,0.,4.8,0.,4.8,0.,4.8,0.,4.8
1980-11-14 09:12:50.070 ,6,0,0.,4.8,0.,4.8,0.,4.8,0.,4.8
1980-11-14 09:12:54.870 ,6,0,0.,4.8,0.,4.8,0.,4.8,0.,4.8
1980-11-14 09:12:59.670 ,6,0,0.,4.8,1.,4.8,0.,4.8,0.,4.8
1980-11-14 09:13:04.470 ,6,0,0.,4.8,0.,4.8,2.,4.8,0.,4.8
1980-11-14 09:13:09.270 ,6,0,1.,4.8,0.,4.8,0.,4.8,0.,4.8
1980-11-14 09:13:14.070 ,6,0,0.,4.8,0.,4.8,0.,4.8,0.,4.8
1980-11-14 09:13:18.870 ,6,0,0.,4.8,0.,4.8,0.,4.8,0.,4.8
1980-11-14 09:13:23.670 ,7,0,0.,4.8,0.,4.8,0.,4.8,0.,4.8
1980-11-14 09:13:28.470 ,7,0,0.,4.8,0.,4.8,0.,4.8,0.,4.8
1980-11-14 09:13:33.270 ,7,0,0.,4.8,0.,4.8,0.,4.8,0.,4.8
1980-11-14 09:13:38.070 ,7,0,2.,4.8,0.,4.8,1.,4.8,0.,4.8
1980-11-14 09:13:42.870 ,7,0,1.,4.8,0.,4.8,1.,4.8,0.,4.8
1980-11-14 09:13:47.670 ,7,0,0.,4.8,1.,4.8,0.,4.8,0.,4.8
1980-11-14 09:13:52.470 ,7,0,1.,4.8,0.,4.8,0.,4.8,0.,4.8
1980-11-14 09:13:57.270 ,7,0,0.,4.8,0.,4.8,0.,4.8,0.,4.8
1980-11-14 09:14:02.070 ,7,0,0.,4.8,0.,4.8,0.,4.8,0.,4.8
1980-11-14 09:14:06.870 ,7,0,0.,4.8,0.,4.8,0.,4.8,0.,4.8
1980-11-14 09:14:11.670 ,7,0,0.,4.8,0.,4.8,0.,4.8,0.,4.8
1980-11-14 09:14:16.470 ,7,0,1.,4.8,0.,4.8,0.,4.8,0.,4.8
1980-11-14 09:14:21.270 ,7,0,0.,4.8,0.,4.8,0.,4.8,0.,4.8
1980-11-14 09:14:26.070 ,7,0,1.,4.8,0.,4.8,0.,4.8,0.,4.8
1980-11-14 09:14:30.870 ,7,0,1.,4.8,0.,4.8,0.,4.8,0.,4.8
1980-11-14 09:14:35.670 ,7,0,0.,4.8,0.,4.8,0.,4.8,0.,4.8
1980-11-14 09:14:40.470 ,7,0,0.,4.8,0.,4.8,0.,4.8,0.,4.8
1980-11-14 09:14:45.270 ,7,0,1.,4.8,0.,4.8,1.,4.8,0.,4.8
1980-11-14 09:14:50.070 ,7,0,0.,4.8,0.,4.8,0.,4.8,0.,4.8
1980-11-14 09:14:54.870 ,7,0,1.,4.8,0.,4.8,0.,4.8,0.,4.8
1980-11-14 09:14:59.670 ,6,0,0.,4.8,0.,4.8,0.,4.8,0.,4.8
1980-11-14 09:15:04.470 ,6,0,1.,4.8,0.,4.8,0.,4.8,0.,4.8
1980-11-14 09:15:09.270 ,6,0,0.,4.8,0.,4.8,0.,4.8,0.,4.8
1980-11-14 09:15:14.070 ,6,0,1.,4.8,0.,4.8,0.,4.8,0.,4.8
1980-11-14 09:15:18.870 ,6,0,0.,4.8,0.,4.8,0.,4.8,0.,4.8
1980-11-14 09:15:23.670 ,6,0,0.,4.8,0.,4.8,0.,4.8,0.,4.8
1980-11-14 09:15:28.470 ,6,0,1.,4.8,0.,4.8,0.,4.8,0.,4.8
1980-11-14 09:15:33.270 ,6,0,0.,4.8,0.,4.8,0.,4.8,0.,4.8
1980-11-14 09:15:38.070 ,6,0,0.,4.8,0.,4.8,0.,4.8,0.,4.8
1980-11-14 09:15:42.870 ,6,0,0.,4.8,0.,4.8,0.,4.8,0.,4.8
1980-11-14 09:15:47.670 ,5,0,0.,4.8,0.,4.8,0.,4.8,0.,4.8
1980-11-14 09:15:52.470 ,5,0,0.,4.8,0.,4.8,0.,4.8,0.,4.8
1980-11-14 09:15:57.270 ,5,0,1.,4.8,0.,4.8,0.,4.8,0.,4.8
1980-11-14 09:16:02.070 ,5,0,1.,4.8,0.,4.8,0.,4.8,0.,4.8
1980-11-14 09:16:06.870 ,5,0,1.,4.8,0.,4.8,0.,4.8,0.,4.8
1980-11-14 09:16:11.670 ,5,0,0.,4.8,0.,4.8,0.,4.8,0.,4.8
1980-11-14 09:16:16.470 ,5,0,1.,4.8,0.,4.8,0.,4.8,0.,4.8
1980-11-14 09:16:21.270 ,5,0,0.,4.8,0.,4.8,0.,4.8,0.,4.8
1980-11-14 09:16:26.070 ,5,0,1.,4.8,0.,4.8,0.,4.8,0.,4.8
1980-11-14 09:16:30.870 ,5,0,2.,4.8,0.,4.8,0.,4.8,0.,4.8
1980-11-14 09:16:35.670 ,4,0,1.,4.8,1.,4.8,0.,4.8,0.,4.8
1980-11-14 09:16:40.470 ,4,0,1.,4.8,0.,4.8,0.,4.8,0.,4.8
1980-11-14 09:16:45.270 ,4,0,0.,4.8,0.,4.8,0.,4.8,0.,4.8
1980-11-14 09:16:50.070 ,4,0,3.,4.8,0.,4.8,0.,4.8,0.,4.8
1980-11-14 09:16:54.870 ,4,0,0.,4.8,0.,4.8,0.,4.8,0.,4.8
1980-11-14 09:16:59.670 ,4,0,0.,4.8,1.,4.8,1.,4.8,0.,4.8
1980-11-14 09:17:04.470 ,4,0,0.,4.8,0.,4.8,0.,4.8,0.,4.8
1980-11-14 09:17:09.270 ,4,0,1.,4.8,0.,4.8,0.,4.8,0.,4.8
1980-11-14 09:17:14.070 ,4,0,1.,4.8,0.,4.8,0.,4.8,0.,4.8
1980-11-14 09:17:18.870 ,4,0,1.,4.8,0.,4.8,1.,4.8,0.,4.8
1980-11-14 09:17:23.670 ,3,0,0.,4.8,0.,4.8,0.,4.8,0.,4.8
1980-11-14 09:17:28.470 ,3,0,2.,4.8,1.,4.8,0.,4.8,0.,4.8
1980-11-14 09:17:33.270 ,3,0,0.,4.8,0.,4.8,0.,4.8,0.,4.8
1980-11-14 09:17:38.070 ,3,0,0.,4.8,0.,4.8,0.,4.8,0.,4.8
1980-11-14 09:17:42.870 ,3,0,0.,4.8,0.,4.8,0.,4.8,0.,4.8
1980-11-14 09:17:47.670 ,3,0,2.,4.8,0.,4.8,0.,4.8,0.,4.8
1980-11-14 09:17:52.470 ,3,0,0.,4.8,1.,4.8,0.,4.8,0.,4.8
1980-11-14 09:17:57.270 ,3,0,0.,4.8,0.,4.8,0.,4.8,0.,4.8
1980-11-14 09:18:02.070 ,3,0,0.,4.8,0.,4.8,0.,4.8,0.,4.8
1980-11-14 09:18:06.870 ,3,0,0.,4.8,0.,4.8,0.,4.8,0.,4.8
1980-11-14 09:18:11.670 ,2,0,1.,4.8,0.,4.8,0.,4.8,0.,4.8
1980-11-14 09:18:16.470 ,2,0,0.,4.8,0.,4.8,0.,4.8,0.,4.8
1980-11-14 09:18:21.270 ,2,0,0.,4.8,0.,4.8,0.,4.8,0.,4.8
1980-11-14 09:18:26.070 ,2,0,0.,4.8,0.,4.8,0.,4.8,0.,4.8
1980-11-14 09:18:30.870 ,2,0,0.,4.8,0.,4.8,0.,4.8,0.,4.8
1980-11-14 09:18:35.670 ,2,0,0.,4.8,0.,4.8,0.,4.8,0.,4.8
1980-11-14 09:18:40.470 ,2,0,0.,4.8,0.,4.8,0.,4.8,0.,4.8
1980-11-14 09:18:45.270 ,2,0,0.,4.8,0.,4.8,2.,4.8,0.,4.8
1980-11-14 09:18:50.070 ,2,0,0.,4.8,0.,4.8,0.,4.8,0.,4.8
1980-11-14 09:18:54.870 ,2,0,0.,4.8,0.,4.8,0.,4.8,0.,4.8
1980-11-14 09:18:59.670 ,1,0,0.,4.8,0.,4.8,0.,4.8,0.,4.8
1980-11-14 09:19:04.470 ,1,0,1.,4.8,0.,4.8,0.,4.8,0.,4.8
1980-11-14 09:19:09.270 ,1,0,1.,4.8,0.,4.8,0.,4.8,0.,4.8
1980-11-14 09:19:14.070 ,1,0,0.,4.8,0.,4.8,0.,4.8,0.,4.8
1980-11-14 09:19:18.870 ,1,0,0.,4.8,1.,4.8,0.,4.8,0.,4.8
1980-11-14 09:19:23.670 ,1,0,0.,4.8,0.,4.8,0.,4.8,0.,4.8
1980-11-14 09:19:28.470 ,1,0,0.,4.8,0.,4.8,0.,4.8,0.,4.8
1980-11-14 09:19:33.270 ,1,0,0.,4.8,0.,4.8,0.,4.8,0.,4.8
1980-11-14 09:19:38.070 ,1,0,2.,4.8,0.,4.8,0.,4.8,0.,4.8
1980-11-14 09:19:42.870 ,1,0,0.,4.8,0.,4.8,0.,4.8,0.,4.8
1980-11-14 09:19:47.670 ,0,0,0.,4.8,0.,4.8,0.,4.8,0.,4.8
1980-11-14 09:19:52.470 ,0,0,0.,4.8,0.,4.8,0.,4.8,0.,4.8
1980-11-14 09:19:57.270 ,0,0,0.,4.8,1.,4.8,0.,4.8,0.,4.8
1980-11-14 09:20:02.070 ,0,0,0.,4.8,0.,4.8,1.,4.8,0.,4.8
1980-11-14 09:20:06.870 ,0,0,2.,4.8,0.,4.8,0.,4.8,0.,4.8
1980-11-14 09:20:11.670 ,0,0,0.,4.8,0.,4.8,0.,4.8,0.,4.8
1980-11-14 09:20:16.470 ,0,0,0.,4.8,0.,4.8,0.,4.8,0.,4.8
1980-11-14 09:20:21.270 ,0,0,0.,4.8,0.,4.8,0.,4.8,0.,4.8
1980-11-14 09:20:26.070 ,0,0,0.,4.8,0.,4.8,0.,4.8,0.,4.8
1980-11-14 09:20:30.870 ,0,0,0.,4.8,0.,4.8,0.,4.8,0.,4.8
1980-11-14 09:20:35.670 ,0,0,0.,4.8,0.,4.8,0.,4.8,0.,4.8
1980-11-14 09:20:40.470 ,0,0,0.,4.8,0.,4.8,0.,4.8,0.,4.8
1980-11-14 09:20:45.270 ,0,0,0.,4.8,0.,4.8,0.,4.8,0.,4.8
1980-11-14 09:20:50.070 ,0,0,0.,4.8,0.,4.8,0.,4.8,0.,4.8
1980-11-14 09:20:54.870 ,0,0,1.,4.8,0.,4.8,0.,4.8,0.,4.8
1980-11-14 09:20:59.670 ,0,0,0.,4.8,0.,4.8,0.,4.8,0.,4.8
1980-11-14 09:21:04.470 ,0,0,1.,4.8,0.,4.8,0.,4.8,0.,4.8
1980-11-14 09:21:09.270 ,0,0,1.,4.8,0.,4.8,0.,4.8,0.,4.8
1980-11-14 09:21:14.070 ,0,0,0.,4.8,0.,4.8,0.,4.8,0.,4.8
1980-11-14 09:21:18.870 ,0,0,,0,,0,,0,,0
1980-11-14 09:21:18.270 ,0,0,,0,,0,,0,,0
1980-11-14 09:21:23.070 ,0,0,,0,,0,,0,,0
1980-11-14 09:21:27.870 ,0,0,,0,,0,,0,,0
1980-11-14 09:21:32.670 ,0,0,,0,,0,,0,,0
1980-11-14 09:21:37.470 ,0,0,0.,4.8,0.,4.8,0.,4.8,0.,4.8
1980-11-14 09:21:23.670 ,1,0,0.,4.8,0.,4.8,0.,4.8,0.,4.8
1980-11-14 09:21:28.470 ,1,0,0.,4.8,0.,4.8,0.,4.8,0.,4.8
1980-11-14 09:21:33.270 ,1,0,0.,4.8,0.,4.8,0.,4.8,0.,4.8
1980-11-14 09:21:38.070 ,1,0,1.,4.8,0.,4.8,0.,4.8,0.,4.8
1980-11-14 09:21:42.870 ,1,0,1.,4.8,0.,4.8,0.,4.8,0.,4.8
1980-11-14 09:21:47.670 ,1,0,1.,4.8,0.,4.8,0.,4.8,0.,4.8
1980-11-14 09:21:52.470 ,1,0,0.,4.8,0.,4.8,0.,4.8,0.,4.8
1980-11-14 09:21:57.270 ,1,0,1.,4.8,0.,4.8,0.,4.8,0.,4.8
1980-11-14 09:22:02.070 ,1,0,0.,4.8,0.,4.8,0.,4.8,0.,4.8
1980-11-14 09:22:06.870 ,1,0,3.,4.8,0.,4.8,0.,4.8,0.,4.8
1980-11-14 09:22:11.670 ,2,0,0.,4.8,0.,4.8,0.,4.8,0.,4.8
1980-11-14 09:22:16.470 ,2,0,0.,4.8,0.,4.8,0.,4.8,0.,4.8
1980-11-14 09:22:21.270 ,2,0,1.,4.8,0.,4.8,0.,4.8,0.,4.8
1980-11-14 09:22:26.070 ,2,0,0.,4.8,0.,4.8,0.,4.8,0.,4.8
1980-11-14 09:22:30.870 ,2,0,1.,4.8,0.,4.8,0.,4.8,0.,4.8
1980-11-14 09:22:35.670 ,2,0,0.,4.8,0.,4.8,1.,4.8,0.,4.8
1980-11-14 09:22:40.470 ,2,0,0.,4.8,0.,4.8,0.,4.8,0.,4.8
1980-11-14 09:22:45.270 ,2,0,1.,4.8,0.,4.8,0.,4.8,0.,4.8
1980-11-14 09:22:50.070 ,2,0,1.,4.8,0.,4.8,0.,4.8,0.,4.8
1980-11-14 09:22:54.870 ,2,0,0.,4.8,0.,4.8,0.,4.8,0.,4.8
1980-11-14 09:22:59.670 ,3,0,2.,4.8,0.,4.8,0.,4.8,0.,4.8
1980-11-14 09:23:04.470 ,3,0,0.,4.8,0.,4.8,1.,4.8,0.,4.8
1980-11-14 09:23:09.270 ,3,0,0.,4.8,0.,4.8,0.,4.8,0.,4.8
1980-11-14 09:23:14.070 ,3,0,0.,4.8,0.,4.8,0.,4.8,0.,4.8
1980-11-14 09:23:18.870 ,3,0,0.,4.8,0.,4.8,0.,4.8,0.,4.8
1980-11-14 09:23:23.670 ,3,0,1.,4.8,0.,4.8,0.,4.8,0.,4.8
1980-11-14 09:23:28.470 ,3,0,1.,4.8,0.,4.8,0.,4.8,0.,4.8
1980-11-14 09:23:33.270 ,3,0,0.,4.8,0.,4.8,0.,4.8,0.,4.8
1980-11-14 09:23:38.070 ,3,0,1.,4.8,0.,4.8,0.,4.8,0.,4.8
1980-11-14 09:23:42.870 ,3,0,0.,4.8,0.,4.8,0.,4.8,0.,4.8
1980-11-14 09:23:47.670 ,4,0,0.,4.8,1.,4.8,0.,4.8,0.,4.8
1980-11-14 09:23:52.470 ,4,0,1.,4.8,0.,4.8,0.,4.8,0.,4.8
1980-11-14 09:23:57.270 ,4,0,0.,4.8,0.,4.8,0.,4.8,0.,4.8
1980-11-14 09:24:02.070 ,4,0,0.,4.8,0.,4.8,0.,4.8,0.,4.8
1980-11-14 09:24:06.870 ,4,0,0.,4.8,0.,4.8,0.,4.8,0.,4.8
1980-11-14 09:24:11.670 ,4,0,1.,4.8,1.,4.8,0.,4.8,0.,4.8
1980-11-14 09:24:16.470 ,4,0,1.,4.8,0.,4.8,0.,4.8,0.,4.8
1980-11-14 09:24:21.270 ,4,0,0.,4.8,0.,4.8,0.,4.8,0.,4.8
1980-11-14 09:24:26.070 ,4,0,0.,4.8,0.,4.8,0.,4.8,0.,4.8
1980-11-14 09:24:30.870 ,4,0,0.,4.8,0.,4.8,0.,4.8,0.,4.8
1980-11-14 09:24:35.670 ,5,0,0.,4.8,0.,4.8,1.,4.8,0.,4.8
1980-11-14 09:24:40.470 ,5,0,0.,4.8,0.,4.8,1.,4.8,0.,4.8
1980-11-14 09:24:45.270 ,5,0,0.,4.8,0.,4.8,0.,4.8,0.,4.8
1980-11-14 09:24:50.070 ,5,0,1.,4.8,0.,4.8,0.,4.8,0.,4.8
1980-11-14 09:24:54.870 ,5,0,0.,4.8,0.,4.8,0.,4.8,0.,4.8
1980-11-14 09:24:59.670 ,5,0,0.,4.8,0.,4.8,0.,4.8,0.,4.8
1980-11-14 09:25:04.470 ,5,0,0.,4.8,0.,4.8,0.,4.8,0.,4.8
1980-11-14 09:25:09.270 ,5,0,0.,4.8,0.,4.8,0.,4.8,0.,4.8
1980-11-14 09:25:14.070 ,5,0,0.,4.8,0.,4.8,0.,4.8,0.,4.8
1980-11-14 09:25:18.870 ,5,0,0.,4.8,0.,4.8,0.,4.8,0.,4.8
1980-11-14 09:25:23.670 ,6,0,0.,4.8,0.,4.8,0.,4.8,0.,4.8
1980-11-14 09:25:28.470 ,6,0,1.,4.8,0.,4.8,0.,4.8,0.,4.8
1980-11-14 09:25:33.270 ,6,0,1.,4.8,0.,4.8,0.,4.8,0.,4.8
1980-11-14 09:25:38.070 ,6,0,1.,4.8,0.,4.8,1.,4.8,0.,4.8
1980-11-14 09:25:42.870 ,6,0,1.,4.8,0.,4.8,0.,4.8,0.,4.8
1980-11-14 09:25:47.670 ,6,0,0.,4.8,0.,4.8,0.,4.8,0.,4.8
1980-11-14 09:25:52.470 ,6,0,0.,4.8,0.,4.8,2.,4.8,0.,4.8
1980-11-14 09:25:57.270 ,6,0,1.,4.8,0.,4.8,0.,4.8,0.,4.8
1980-11-14 09:26:02.070 ,6,0,1.,4.8,0.,4.8,0.,4.8,0.,4.8
1980-11-14 09:26:06.870 ,6,0,0.,4.8,0.,4.8,0.,4.8,1.,4.8
1980-11-14 09:26:11.670 ,7,0,0.,4.8,0.,4.8,0.,4.8,0.,4.8
1980-11-14 09:26:16.470 ,7,0,0.,4.8,0.,4.8,0.,4.8,0.,4.8
1980-11-14 09:26:21.270 ,7,0,1.,4.8,0.,4.8,0.,4.8,0.,4.8
1980-11-14 09:26:26.070 ,7,0,0.,4.8,0.,4.8,0.,4.8,0.,4.8
1980-11-14 09:26:30.870 ,7,0,0.,4.8,0.,4.8,0.,4.8,0.,4.8
1980-11-14 09:26:35.670 ,7,0,1.,4.8,0.,4.8,0.,4.8,0.,4.8
1980-11-14 09:26:40.470 ,7,0,0.,4.8,0.,4.8,0.,4.8,0.,4.8
1980-11-14 09:26:45.270 ,7,0,1.,4.8,0.,4.8,0.,4.8,0.,4.8
1980-11-14 09:26:50.070 ,7,0,1.,4.8,0.,4.8,0.,4.8,0.,4.8
1980-11-14 09:26:54.870 ,7,0,0.,4.8,0.,4.8,0.,4.8,0.,4.8
1980-11-14 09:26:59.670 ,7,0,0.,4.8,0.,4.8,0.,4.8,0.,4.8
1980-11-14 09:27:04.470 ,7,0,0.,4.8,0.,4.8,0.,4.8,0.,4.8
1980-11-14 09:27:09.270 ,7,0,0.,4.8,0.,4.8,0.,4.8,0.,4.8
1980-11-14 09:27:14.070 ,7,0,0.,4.8,0.,4.8,0.,4.8,0.,4.8
1980-11-14 09:27:18.870 ,7,0,0.,4.8,0.,4.8,0.,4.8,0.,4.8
1980-11-14 09:27:23.670 ,7,0,3.,4.8,0.,4.8,0.,4.8,0.,4.8
1980-11-14 09:27:28.470 ,7,0,1.,4.8,0.,4.8,0.,4.8,0.,4.8
1980-11-14 09:27:33.270 ,7,0,1.,4.8,0.,4.8,0.,4.8,0.,4.8
1980-11-14 09:27:38.070 ,7,0,0.,4.8,0.,4.8,0.,4.8,0.,4.8
1980-11-14 09:27:42.870 ,7,0,1.,4.8,0.,4.8,0.,4.8,0.,4.8
1980-11-14 09:27:47.670 ,6,0,1.,4.8,0.,4.8,0.,4.8,0.,4.8
1980-11-14 09:27:52.470 ,6,0,0.,4.8,0.,4.8,0.,4.8,0.,4.8
1980-11-14 09:27:57.270 ,6,0,0.,4.8,0.,4.8,0.,4.8,0.,4.8
1980-11-14 09:28:02.070 ,6,0,1.,4.8,0.,4.8,0.,4.8,0.,4.8
1980-11-14 09:28:06.870 ,6,0,2.,4.8,0.,4.8,0.,4.8,0.,4.8
1980-11-14 09:28:11.670 ,6,0,1.,4.8,0.,4.8,0.,4.8,0.,4.8
1980-11-14 09:28:16.470 ,6,0,1.,4.8,0.,4.8,0.,4.8,0.,4.8
1980-11-14 09:28:21.270 ,6,0,0.,4.8,0.,4.8,0.,4.8,0.,4.8
1980-11-14 09:28:26.070 ,6,0,0.,4.8,0.,4.8,0.,4.8,0.,4.8
1980-11-14 09:28:30.870 ,6,0,1.,4.8,0.,4.8,0.,4.8,0.,4.8
1980-11-14 09:28:35.670 ,5,0,0.,4.8,0.,4.8,0.,4.8,0.,4.8
1980-11-14 09:28:40.470 ,5,0,1.,4.8,0.,4.8,0.,4.8,0.,4.8
1980-11-14 09:28:45.270 ,5,0,0.,4.8,0.,4.8,1.,4.8,0.,4.8
1980-11-14 09:28:50.070 ,5,0,0.,4.8,0.,4.8,0.,4.8,0.,4.8
1980-11-14 09:28:54.870 ,5,0,1.,4.8,0.,4.8,0.,4.8,0.,4.8
1980-11-14 09:28:59.670 ,5,0,0.,4.8,0.,4.8,0.,4.8,0.,4.8
1980-11-14 09:29:04.470 ,5,0,1.,4.8,0.,4.8,0.,4.8,0.,4.8
1980-11-14 09:29:09.270 ,5,0,0.,4.8,0.,4.8,0.,4.8,0.,4.8
1980-11-14 09:29:14.070 ,5,0,0.,4.8,0.,4.8,0.,4.8,0.,4.8
1980-11-14 09:29:18.870 ,5,0,0.,4.8,0.,4.8,0.,4.8,0.,4.8
1980-11-14 09:29:23.670 ,4,0,1.,4.8,0.,4.8,0.,4.8,0.,4.8
1980-11-14 09:29:28.470 ,4,0,0.,4.8,0.,4.8,0.,4.8,0.,4.8
1980-11-14 09:29:33.270 ,4,0,2.,4.8,0.,4.8,0.,4.8,0.,4.8
1980-11-14 09:29:38.070 ,4,0,0.,4.8,0.,4.8,1.,4.8,0.,4.8
1980-11-14 09:29:42.870 ,4,0,0.,4.8,0.,4.8,0.,4.8,0.,4.8
1980-11-14 09:29:47.670 ,4,0,0.,4.8,0.,4.8,0.,4.8,0.,4.8
1980-11-14 09:29:52.470 ,4,0,0.,4.8,0.,4.8,0.,4.8,0.,4.8
1980-11-14 09:29:57.270 ,4,0,1.,4.8,0.,4.8,1.,4.8,0.,4.8
1980-11-14 09:30:02.070 ,4,0,0.,4.8,0.,4.8,0.,4.8,0.,4.8
1980-11-14 09:30:06.870 ,4,0,1.,4.8,0.,4.8,0.,4.8,0.,4.8
1980-11-14 09:30:11.670 ,3,0,0.,4.8,0.,4.8,0.,4.8,0.,4.8
1980-11-14 09:30:16.470 ,3,0,2.,4.8,0.,4.8,0.,4.8,0.,4.8
1980-11-14 09:30:21.270 ,3,0,0.,4.8,0.,4.8,0.,4.8,0.,4.8
1980-11-14 09:30:26.070 ,3,0,0.,4.8,0.,4.8,0.,4.8,0.,4.8
1980-11-14 09:30:30.870 ,3,0,0.,4.8,0.,4.8,0.,4.8,0.,4.8
1980-11-14 09:30:35.670 ,3,0,0.,4.8,0.,4.8,0.,4.8,0.,4.8
1980-11-14 09:30:40.470 ,3,0,0.,4.8,0.,4.8,0.,4.8,0.,4.8
1980-11-14 09:30:45.270 ,3,0,0.,4.8,0.,4.8,0.,4.8,0.,4.8
1980-11-14 09:30:50.070 ,3,0,1.,4.8,0.,4.8,0.,4.8,0.,4.8
1980-11-14 09:30:54.870 ,3,0,2.,4.8,0.,4.8,0.,4.8,0.,4.8
1980-11-14 09:30:59.670 ,2,0,0.,4.8,0.,4.8,0.,4.8,0.,4.8
1980-11-14 09:31:04.470 ,2,0,0.,4.8,0.,4.8,0.,4.8,0.,4.8
1980-11-14 09:31:09.270 ,2,0,1.,4.8,0.,4.8,0.,4.8,0.,4.8
1980-11-14 09:31:14.070 ,2,0,1.,4.8,0.,4.8,0.,4.8,0.,4.8
1980-11-14 09:31:18.870 ,2,0,0.,4.8,0.,4.8,1.,4.8,0.,4.8
1980-11-14 09:31:23.670 ,2,0,1.,4.8,0.,4.8,0.,4.8,0.,4.8
1980-11-14 09:31:28.470 ,2,0,0.,4.8,0.,4.8,0.,4.8,0.,4.8
1980-11-14 09:31:33.270 ,2,0,0.,4.8,0.,4.8,0.,4.8,0.,4.8
1980-11-14 09:31:38.070 ,2,0,0.,4.8,0.,4.8,0.,4.8,0.,4.8
1980-11-14 09:31:42.870 ,2,0,0.,4.8,0.,4.8,0.,4.8,0.,4.8
1980-11-14 09:31:47.670 ,1,0,3.,4.8,0.,4.8,0.,4.8,0.,4.8
1980-11-14 09:31:52.470 ,1,0,0.,4.8,0.,4.8,0.,4.8,0.,4.8
1980-11-14 09:31:57.270 ,1,0,0.,4.8,0.,4.8,0.,4.8,0.,4.8
1980-11-14 09:32:02.070 ,1,0,2.,4.8,0.,4.8,1.,4.8,0.,4.8
1980-11-14 09:32:06.870 ,1,0,0.,4.8,1.,4.8,0.,4.8,0.,4.8
1980-11-14 09:32:11.670 ,1,0,0.,4.8,0.,4.8,0.,4.8,0.,4.8
1980-11-14 09:32:16.470 ,1,0,0.,4.8,0.,4.8,0.,4.8,0.,4.8
1980-11-14 09:32:21.270 ,1,0,1.,4.8,0.,4.8,0.,4.8,0.,4.8
1980-11-14 09:32:26.070 ,1,0,0.,4.8,0.,4.8,0.,4.8,0.,4.8
1980-11-14 09:32:30.870 ,1,0,0.,4.8,0.,4.8,0.,4.8,0.,4.8
1980-11-14 09:32:35.670 ,0,0,0.,4.8,0.,4.8,0.,4.8,0.,4.8
1980-11-14 09:32:40.470 ,0,0,0.,4.8,0.,4.8,0.,4.8,0.,4.8
1980-11-14 09:32:45.270 ,0,0,1.,4.8,0.,4.8,0.,4.8,0.,4.8
1980-11-14 09:32:50.070 ,0,0,1.,4.8,0.,4.8,1.,4.8,0.,4.8
1980-11-14 09:32:54.870 ,0,0,0.,4.8,0.,4.8,0.,4.8,0.,4.8
1980-11-14 09:32:59.670 ,0,0,0.,4.8,0.,4.8,0.,4.8,0.,4.8
1980-11-14 09:33:04.470 ,0,0,0.,4.8,0.,4.8,0.,4.8,0.,4.8
1980-11-14 09:33:09.270 ,0,0,0.,4.8,0.,4.8,0.,4.8,0.,4.8
1980-11-14 09:33:14.070 ,0,0,0.,4.8,0.,4.8,0.,4.8,0.,4.8
1980-11-14 09:33:18.870 ,0,0,1.,4.8,0.,4.8,1.,4.8,0.,4.8
1980-11-14 09:33:23.670 ,0,0,0.,4.8,0.,4.8,0.,4.8,0.,4.8
1980-11-14 09:33:28.470 ,0,0,0.,4.8,0.,4.8,0.,4.8,0.,4.8
1980-11-14 09:33:33.270 ,0,0,0.,4.8,0.,4.8,0.,4.8,0.,4.8
1980-11-14 09:33:38.070 ,0,0,0.,4.8,0.,4.8,0.,4.8,0.,4.8
1980-11-14 09:33:42.870 ,0,0,0.,4.8,0.,4.8,0.,4.8,0.,4.8
1980-11-14 09:33:47.670 ,0,0,0.,4.8,0.,4.8,0.,4.8,0.,4.8
1980-11-14 09:33:52.470 ,0,0,0.,4.8,0.,4.8,0.,4.8,0.,4.8
1980-11-14 09:33:57.270 ,0,0,1.,4.8,0.,4.8,0.,4.8,0.,4.8
1980-11-14 09:34:02.070 ,0,0,1.,4.8,0.,4.8,0.,4.8,0.,4.8
1980-11-14 09:34:06.870 ,0,0,0.,4.8,0.,4.8,0.,4.8,0.,4.8
1980-11-14 09:34:11.670 ,1,0,1.,4.8,0.,4.8,0.,4.8,0.,4.8
1980-11-14 09:34:16.470 ,1,0,0.,4.8,0.,4.8,0.,4.8,0.,4.8
1980-11-14 09:34:21.270 ,1,0,0.,4.8,0.,4.8,0.,4.8,0.,4.8
1980-11-14 09:34:26.070 ,1,0,0.,4.8,0.,4.8,0.,4.8,0.,4.8
1980-11-14 09:34:30.870 ,1,0,0.,4.8,1.,4.8,0.,4.8,0.,4.8
1980-11-14 09:34:35.670 ,1,0,0.,4.8,0.,4.8,0.,4.8,0.,4.8
1980-11-14 09:34:40.470 ,1,0,0.,4.8,0.,4.8,0.,4.8,0.,4.8
1980-11-14 09:34:45.270 ,1,0,1.,4.8,0.,4.8,0.,4.8,0.,4.8
1980-11-14 09:34:50.070 ,1,0,1.,4.8,0.,4.8,0.,4.8,0.,4.8
1980-11-14 09:34:54.870 ,1,0,0.,4.8,0.,4.8,0.,4.8,0.,4.8
1980-11-14 09:34:59.670 ,2,0,1.,4.8,0.,4.8,0.,4.8,0.,4.8
1980-11-14 09:35:04.470 ,2,0,0.,4.8,0.,4.8,0.,4.8,0.,4.8
1980-11-14 09:35:09.270 ,2,0,2.,4.8,0.,4.8,0.,4.8,0.,4.8
1980-11-14 09:35:14.070 ,2,0,0.,4.8,0.,4.8,0.,4.8,0.,4.8
1980-11-14 09:35:18.870 ,2,0,2.,4.8,0.,4.8,0.,4.8,0.,4.8
1980-11-14 09:35:23.670 ,2,0,0.,4.8,0.,4.8,0.,4.8,0.,4.8
1980-11-14 09:35:28.470 ,2,0,0.,4.8,0.,4.8,0.,4.8,0.,4.8
1980-11-14 09:35:33.270 ,2,0,1.,4.8,0.,4.8,0.,4.8,0.,4.8
1980-11-14 09:35:38.070 ,2,0,0.,4.8,0.,4.8,0.,4.8,0.,4.8
1980-11-14 09:35:42.870 ,2,0,0.,4.8,0.,4.8,1.,4.8,0.,4.8
1980-11-14 09:35:47.670 ,0,0,0.,4.8,0.,4.8,1.,4.8,0.,4.8
1980-11-14 09:35:52.470 ,0,0,0.,4.8,0.,4.8,0.,4.8,0.,4.8
1980-11-14 09:35:57.270 ,0,0,2.,4.8,0.,4.8,0.,4.8,0.,4.8
1980-11-14 09:36:02.070 ,0,0,0.,4.8,0.,4.8,0.,4.8,0.,4.8
1980-11-14 09:36:06.870 ,0,0,1.,4.8,0.,4.8,0.,4.8,0.,4.8
1980-11-14 09:36:11.670 ,0,0,1.,4.8,0.,4.8,1.,4.8,0.,4.8
1980-11-14 09:36:16.470 ,0,0,0.,4.8,0.,4.8,0.,4.8,0.,4.8
1980-11-14 09:36:21.270 ,0,0,0.,4.8,0.,4.8,0.,4.8,0.,4.8
1980-11-14 09:36:26.070 ,0,0,0.,4.8,0.,4.8,0.,4.8,0.,4.8
1980-11-14 09:36:30.870 ,0,0,0.,4.8,0.,4.8,0.,4.8,0.,4.8
1980-11-14 09:36:35.670 ,4,0,1.,4.8,0.,4.8,0.,4.8,0.,4.8
1980-11-14 09:36:40.470 ,4,0,3.,4.8,0.,4.8,0.,4.8,0.,4.8
1980-11-14 09:36:45.270 ,4,0,1.,4.8,0.,4.8,0.,4.8,0.,4.8
1980-11-14 09:36:50.070 ,4,0,0.,4.8,0.,4.8,0.,4.8,0.,4.8
1980-11-14 09:36:54.870 ,4,0,0.,4.8,0.,4.8,0.,4.8,0.,4.8
1980-11-14 09:36:59.670 ,4,0,0.,4.8,0.,4.8,0.,4.8,0.,4.8
1980-11-14 09:37:04.470 ,4,0,0.,4.8,0.,4.8,0.,4.8,0.,4.8
1980-11-14 09:37:09.270 ,4,0,1.,4.8,0.,4.8,0.,4.8,0.,4.8
1980-11-14 09:37:14.070 ,4,0,1.,4.8,0.,4.8,0.,4.8,0.,4.8
1980-11-14 09:37:18.870 ,4,0,1.,4.8,0.,4.8,0.,4.8,0.,4.8
1980-11-14 09:37:23.670 ,5,0,0.,4.8,0.,4.8,0.,4.8,0.,4.8
1980-11-14 09:37:28.470 ,5,0,0.,4.8,0.,4.8,0.,4.8,0.,4.8
1980-11-14 09:37:33.270 ,5,0,1.,4.8,0.,4.8,0.,4.8,0.,4.8
1980-11-14 09:37:38.070 ,5,0,1.,4.8,0.,4.8,0.,4.8,0.,4.8
1980-11-14 09:37:42.870 ,5,0,1.,4.8,0.,4.8,0.,4.8,0.,4.8
1980-11-14 09:37:47.670 ,5,0,0.,4.8,0.,4.8,0.,4.8,0.,4.8
1980-11-14 09:37:52.470 ,5,0,1.,4.8,0.,4.8,1.,4.8,0.,4.8
1980-11-14 09:37:57.270 ,5,0,0.,4.8,0.,4.8,0.,4.8,0.,4.8
1980-11-14 09:38:02.070 ,5,0,0.,4.8,0.,4.8,0.,4.8,0.,4.8
1980-11-14 09:38:06.870 ,5,0,0.,4.8,0.,4.8,0.,4.8,0.,4.8
1980-11-14 09:38:11.670 ,6,0,0.,4.8,0.,4.8,0.,4.8,0.,4.8
1980-11-14 09:38:16.470 ,6,0,0.,4.8,0.,4.8,0.,4.8,0.,4.8
1980-11-14 09:38:21.270 ,6,0,2.,4.8,0.,4.8,0.,4.8,0.,4.8
1980-11-14 09:38:26.070 ,6,0,1.,4.8,0.,4.8,0.,4.8,0.,4.8
1980-11-14 09:38:30.870 ,6,0,0.,4.8,0.,4.8,0.,4.8,0.,4.8
1980-11-14 09:38:35.670 ,6,0,0.,4.8,0.,4.8,1.,4.8,0.,4.8
1980-11-14 09:38:40.470 ,6,0,0.,4.8,0.,4.8,0.,4.8,0.,4.8
1980-11-14 09:38:45.270 ,6,0,2.,4.8,0.,4.8,0.,4.8,0.,4.8
1980-11-14 09:38:50.070 ,6,0,0.,4.8,0.,4.8,0.,4.8,0.,4.8
1980-11-14 09:38:54.870 ,6,0,1.,4.8,1.,4.8,0.,4.8,0.,4.8
1980-11-14 09:38:59.670 ,7,0,0.,4.8,0.,4.8,0.,4.8,0.,4.8
1980-11-14 09:39:04.470 ,7,0,0.,4.8,0.,4.8,1.,4.8,0.,4.8
1980-11-14 09:39:09.270 ,7,0,0.,4.8,0.,4.8,0.,4.8,0.,4.8
1980-11-14 09:39:14.070 ,7,0,1.,4.8,0.,4.8,0.,4.8,0.,4.8
1980-11-14 09:39:18.870 ,7,0,0.,4.8,0.,4.8,0.,4.8,0.,4.8
1980-11-14 09:39:23.670 ,7,0,1.,4.8,0.,4.8,0.,4.8,0.,4.8
1980-11-14 09:39:28.470 ,7,0,1.,4.8,0.,4.8,0.,4.8,0.,4.8
1980-11-14 09:39:33.270 ,7,0,1.,4.8,0.,4.8,0.,4.8,0.,4.8
1980-11-14 09:39:38.070 ,7,0,0.,4.8,0.,4.8,1.,4.8,0.,4.8
1980-11-14 09:39:42.870 ,7,0,0.,4.8,0.,4.8,0.,4.8,0.,4.8
1980-11-14 09:39:47.670 ,7,0,1.,4.8,0.,4.8,0.,4.8,0.,4.8
1980-11-14 09:39:52.470 ,7,0,1.,4.8,0.,4.8,1.,4.8,0.,4.8
1980-11-14 09:39:57.270 ,7,0,0.,4.8,0.,4.8,0.,4.8,0.,4.8
1980-11-14 09:40:02.070 ,7,0,0.,4.8,0.,4.8,0.,4.8,0.,4.8
1980-11-14 09:40:06.870 ,7,0,0.,4.8,0.,4.8,0.,4.8,0.,4.8
1980-11-14 09:40:11.670 ,7,0,0.,4.8,0.,4.8,1.,4.8,0.,4.8
1980-11-14 09:40:16.470 ,7,0,0.,4.8,0.,4.8,0.,4.8,0.,4.8
1980-11-14 09:40:21.270 ,7,0,0.,4.8,0.,4.8,0.,4.8,0.,4.8
1980-11-14 09:40:26.070 ,7,0,0.,4.8,0.,4.8,0.,4.8,0.,4.8
1980-11-14 09:40:30.870 ,7,0,0.,4.8,0.,4.8,0.,4.8,0.,4.8
1980-11-14 09:40:35.670 ,6,0,0.,4.8,0.,4.8,0.,4.8,0.,4.8
1980-11-14 09:40:40.470 ,6,0,1.,4.8,0.,4.8,0.,4.8,0.,4.8
1980-11-14 09:40:45.270 ,6,0,0.,4.8,0.,4.8,0.,4.8,0.,4.8
1980-11-14 09:40:50.070 ,6,0,0.,4.8,0.,4.8,0.,4.8,0.,4.8
1980-11-14 09:40:54.870 ,6,0,0.,4.8,0.,4.8,0.,4.8,0.,4.8
1980-11-14 09:40:59.670 ,6,0,0.,4.8,0.,4.8,0.,4.8,0.,4.8
1980-11-14 09:41:04.470 ,6,0,1.,4.8,0.,4.8,0.,4.8,0.,4.8